Location: Unspecified
(52.4292°N, 19.3359°E)
Time: 15:29:56
(UTC+02:00)

Transit 2A Rocket - Pass Details

Date: 25 May 2024
Orbit: 583 x 910 km, 66.7° (Epoch: 14 June)

Event Time Altitude Azimuth Distance (km) Brightness Sun altitude
Rises 05:01:09 0° 230° (SW) 3,031 7.4 2.7°
Reaches altitude 10° 05:03:24 10° 234° (SW) 2,167 6.7 3.0°
Maximum altitude 05:08:18 61° 315° (NW) 855 5.3 3.6°
Drops below altitude 10° 05:13:45 10° 36° (NE) 2,398 9.0 4.4°
Sets 05:16:21 0° 40° (NE) 3,383 9.9 4.7°
